[[{"header":{"parameterUnit":"m.s-1","parameterCategory":1,"la1":30.2991,"la2":30.254,"lo1":-89.0895,"lo2":-89.0444,"dy":0.0017,"dx":0.0017,"nx":28,"ny":28,"refTime":"2023-08-04T21:00:00:Z","depth":0,"parameterNumber":2,"parameterNumberName":"U-component_of_WINDS"},"data":[0,0,0,0,0,0,0,0,0,0,0,0,0,0,0,0,0,0,0,0,0,0,0,0,0,0,0,0,0,0,0,0,0,0,0,0,0,0,0,0,0,0,0,0,0,0,0,0,0,0,0,0,0,0,0,0,0,0,1.0893,1.0893,0,1.0957,1.0957,1.0958,1.0959,1.0958,1.0957,1.0956,1.1027,1.1029,1.1032,0,0,0,0,0,0,0,0,0,0,0,0,0,1.0777,1.0779,1.0893,1.0894,1.0894,1.0957,1.0957,1.0958,1.0959,1.0958,1.0957,1.0956,1.1026,1.1029,1.1032,0,0,0,0,0,0,0,0,0,0,0,0,0,1.0833,1.078,1.0893,1.0902,1.0904,1.0956,1.0957,1.0959,1.0959,1.0958,1.0957,1.0956,1.1025,1.1029,1.1033,1.1082,0,0,1.1045,1.1047,0,0,0,0,0,0,0,0,1.083,1.0837,1.09,1.0902,1.0903,1.0948,1.0942,1.1,1.096,1.0938,1.0956,1.0955,1.1002,1.1008,1.1023,1.1085,1.1088,1.1045,1.1048,1.1049,1.105,0,0,0,0,0,0,0,1.0826,1.0834,1.0918,1.0901,1.0903,1.0905,1.0912,1.0953,1.0977,1.094,1.094,1.0947,1.1003,1.1019,1.1024,1.1089,1.1045,1.1049,1.1051,1.1053,1.1197,1.1199,0,0,0,0,0,0,1.0819,1.0831,1.0916,1.092,1.0862,1.0908,1.0915,1.0935,1.0976,1.0981,1.0948,1.0947,1.1013,1.102,1.1027,1.1088,1.1049,1.1053,1.1055,1.1196,1.1198,1.1199,0,0,0,0,0,0,1.0817,1.0827,1.0914,1.0876,1.0887,1.0911,1.0934,1.0937,1.0953,1.0982,1.0987,1.096,1.1012,1.1021,1.1068,1.1091,1.1055,1.1058,1.1194,1.1196,1.1198,1.121,0,0,0,0,0,0,1.0813,1.0826,1.0843,1.0876,1.0889,1.0952,1.0935,1.0939,1.0959,1.0958,1.0995,1.0999,1.1012,1.1062,1.1072,1.1095,1.1061,1.1192,1.1195,1.1198,1.1208,1.1213,1.1217,0,0,0,0,0,1.0809,1.0845,1.0844,1.0854,1.0911,1.0953,1.0961,1.0973,1.0961,1.098,1.0999,1.0998,1.1086,1.1067,1.1078,1.1103,1.1191,1.1194,1.1197,1.1206,1.1212,1.1217,0,0,0,0,0,0,1.0816,1.0849,1.0849,1.0896,1.0922,1.0953,1.0977,1.0978,1.1009,1.1007,1.1022,1.1031,1.1078,1.1095,1.1073,1.1154,1.1138,1.1143,1.114,1.1146,1.115,1.1145,1.1065,0,0,0,0,0,1.0822,1.0852,1.0881,1.092,1.0932,1.0953,1.0972,1.0979,1.1007,1.1018,1.104,1.1069,1.1103,1.1126,1.1159,1.1211,1.122,1.1233,1.1238,1.1241,1.1246,1.1277,1.1284,1.121,1.121,1.121,0,0,1.0837,1.0859,1.0877,1.0921,1.0942,1.0975,1.0962,1.0996,1.1021,1.1024,1.1069,1.1087,1.112,1.117,1.1193,1.1186,1.1268,1.1245,1.1248,1.1251,1.1281,1.1288,1.1294,1.1212,1.1212,1.1212,0,0,1.088,1.0899,1.0934,1.0955,1.0986,1.0999,1.1008,1.104,1.1051,1.1097,1.11,1.1131,1.1189,1.1213,1.1232,1.1286,1.1287,1.1296,1.1319,1.1349,1.1354,1.136,1.138,1.1387,1.1301,1.1301,1.1301,0,1.0894,1.0942,1.0952,1.0987,1.1007,1.1009,1.1046,1.1067,1.1108,1.1123,1.1114,1.1188,1.121,1.1266,1.1279,1.1295,1.1307,1.1292,1.1352,1.1358,1.1363,1.1383,1.139,1.1302,1.1302,1.1302,1.1302,0,1.0959,1.0992,1.1017,1.1055,1.1078,1.1114,1.1131,1.1154,1.1159,1.1174,1.1222,1.1249,1.1288,1.1302,1.1308,1.136,1.1355,1.1349,1.1333,1.1371,1.139,1.1397,1.1304,1.1303,1.1303,1.1303,0,0,1.1007,1.1051,1.106,1.1078,1.1113,1.114,1.1177,1.1214,1.1234,1.1262,1.1295,1.1344,1.134,1.1362,1.1371,1.1397,1.1439,1.1388,1.1389,1.1398,1.15,1.1505,1.1513,1.144,1.1441,1.1443,1.1498,0,1.1055,1.1118,1.1129,1.1186,1.1217,1.1221,1.1253,1.1279,1.1295,1.1325,1.1343,1.1378,1.1369,1.1382,1.1408,1.1428,1.146,1.1425,1.1472,1.1474,1.1464,1.1523,1.1527,1.1578,1.1505,1.1506,1.1507,0,1.1119,1.1148,1.1207,1.1239,1.1253,1.1281,1.1317,1.1345,1.1376,1.1386,1.1411,1.1417,1.1458,1.144,1.1497,1.1472,1.1493,1.1506,1.1508,1.1514,1.1493,1.1531,1.1594,1.1602,1.1519,1.1518,1.1517,0,1.1149,1.1204,1.1246,1.1262,1.13,1.132,1.1337,1.1366,1.1388,1.142,1.1435,1.1471,1.1492,1.1521,1.1538,1.1523,1.1594,1.1577,1.1605,1.1605,1.162,1.1619,1.1689,1.1632,1.1632,1.1632,1.1631,0,1.1202,1.1238,1.1261,1.1287,1.1329,1.1342,1.1383,1.1401,1.1427,1.1458,1.1464,1.1493,1.1513,1.1546,1.156,1.1606,1.1615,1.1625,1.1629,1.1625,1.1624,1.1639,1.1637,1.1634,1.1633,1.1633,1.1632,0,1.1243,1.126,1.1307,1.1339,1.1348,1.1377,1.1406,1.1433,1.1448,1.1488,1.1498,1.1523,1.1562,1.1582,1.1631,1.164,1.1693,1.1693,1.1682,1.1683,1.171,1.1708,1.1793,1.1805,1.1739,1.174,1.174,0,1.1276,1.1304,1.1339,1.136,1.1377,1.141,1.1432,1.1447,1.1471,1.1508,1.1531,1.157,1.1603,1.1666,1.169,1.1728,1.173,1.1757,1.1736,1.1732,1.1732,1.173,1.1734,1.1761,1.1762,1.1762,1.1763,0,1.1333,1.134,1.137,1.1405,1.1431,1.1459,1.1487,1.1504,1.1524,1.155,1.159,1.1615,1.1665,1.1704,1.1744,1.1764,1.1768,1.1769,1.1778,1.1775,1.1767,1.1773,1.1693,1.1767,1.1767,1.1767,1.1766,1.1766,1.1372,1.1397,1.1426,1.1461,1.1483,1.1509,1.1536,1.1555,1.1588,1.1628,1.1636,1.1678,1.171,1.1764,1.1785,1.182,1.1814,1.1826,1.183,1.1833,1.1834,1.1761,1.1827,1.1827,1.1827,1.1827,1.1827,0,1.143,1.1448,1.148,1.1518,1.1546,1.1545,1.1577,1.1601,1.1637,1.1666,1.1697,1.1744,1.1782,1.1809,1.1849,1.1872,1.1875,1.1882,1.1881,1.1886,1.1837,1.1826,1.1879,1.1879,1.1879,1.1879,1.1879,1.1879,1.1463,1.1506,1.1517,1.1572,1.1591,1.1632,1.165,1.1675,1.1698,1.1749,1.178,1.1797,1.1826,1.1868,1.1904,1.1911,1.1926,1.1934,1.1941,1.1895,1.1889,1.1884,1.1874,1.1936,1.1937,1.1987,1.1988,1.1988]},{"header":{"parameterUnit":"m.s-1","parameterCategory":1,"la1":30.2991,"la2":30.254,"lo1":-89.0895,"lo2":-89.0444,"dy":0.0017,"dx":0.0017,"nx":28,"ny":28,"refTime":"2023-08-04T21:00:00:Z","depth":0,"parameterNumber":3,"parameterNumberName":"V-component_of_WINDS"},"data":[0,0,0,0,0,0,0,0,0,0,0,0,0,0,0,0,0,0,0,0,0,0,0,0,0,0,0,0,0,0,0,0,0,0,0,0,0,0,0,0,0,0,0,0,0,0,0,0,0,0,0,0,0,0,0,0,0,0,1.3418,1.3418,0,1.3448,1.3448,1.3449,1.3442,1.3441,1.3441,1.344,1.347,1.3472,1.3473,0,0,0,0,0,0,0,0,0,0,0,0,0,1.335,1.3352,1.3418,1.3418,1.3419,1.3448,1.3449,1.3449,1.3442,1.3441,1.3441,1.344,1.347,1.3471,1.3473,0,0,0,0,0,0,0,0,0,0,0,0,0,1.338,1.3352,1.3418,1.3419,1.3419,1.3448,1.3449,1.3449,1.3442,1.3441,1.344,1.344,1.3469,1.3471,1.3473,1.3503,0,0,1.3479,1.348,0,0,0,0,0,0,0,0,1.3378,1.3382,1.3418,1.3419,1.3419,1.344,1.3436,1.3467,1.3442,1.3433,1.344,1.3439,1.3461,1.3464,1.3471,1.3504,1.3505,1.348,1.3481,1.3482,1.3482,0,0,0,0,0,0,0,1.3376,1.3381,1.343,1.3419,1.3419,1.3416,1.342,1.3442,1.3452,1.3434,1.3434,1.3437,1.3461,1.3469,1.3472,1.3506,1.3479,1.3481,1.3482,1.3483,1.356,1.356,0,0,0,0,0,0,1.3374,1.3379,1.3429,1.3431,1.3396,1.3418,1.3422,1.3434,1.3451,1.3453,1.3438,1.3437,1.3466,1.3469,1.3473,1.3505,1.3482,1.3483,1.3485,1.3559,1.356,1.3561,0,0,0,0,0,0,1.3373,1.3379,1.3428,1.3405,1.3411,1.342,1.3434,1.3436,1.3444,1.3454,1.3456,1.3445,1.3466,1.347,1.3494,1.3507,1.3484,1.3486,1.3558,1.3559,1.356,1.3573,0,0,0,0,0,0,1.3371,1.3378,1.3391,1.3405,1.3412,1.345,1.3435,1.3437,1.3447,1.3446,1.3461,1.3463,1.3465,1.3491,1.3496,1.3509,1.3488,1.3557,1.3558,1.356,1.3571,1.3574,1.3577,0,0,0,0,0,1.3368,1.3394,1.3391,1.3397,1.3428,1.3451,1.3455,1.3457,1.3448,1.346,1.3466,1.3462,1.3504,1.3494,1.35,1.3513,1.3556,1.3558,1.356,1.357,1.3574,1.3577,0,0,0,0,0,0,1.3382,1.3396,1.3393,1.3425,1.3436,1.345,1.3465,1.3462,1.3476,1.3475,1.3477,1.348,1.3504,1.3511,1.3499,1.354,1.3529,1.3532,1.3535,1.3538,1.3541,1.3538,1.3489,0,0,0,0,0,1.3388,1.3406,1.3417,1.3443,1.3449,1.3456,1.3466,1.3467,1.3479,1.3484,1.3492,1.3503,1.3518,1.3529,1.3544,1.3572,1.3574,1.3584,1.3586,1.3589,1.3591,1.3603,1.3606,1.3567,1.3567,1.3567,0,0,1.3402,1.3412,1.3423,1.3446,1.3455,1.3472,1.346,1.348,1.3491,1.3487,1.3509,1.3515,1.3528,1.3553,1.3565,1.356,1.3602,1.3591,1.3593,1.3594,1.3605,1.3609,1.3612,1.3568,1.3568,1.3568,0,0,1.3435,1.3445,1.3466,1.3475,1.3488,1.3492,1.3497,1.351,1.3513,1.3536,1.3531,1.3545,1.3573,1.358,1.3588,1.3619,1.3615,1.3624,1.3638,1.3649,1.3653,1.3655,1.3664,1.3667,1.3626,1.3626,1.3626,0,1.345,1.3476,1.3478,1.3496,1.3505,1.35,1.352,1.3528,1.3546,1.3551,1.3545,1.3577,1.3585,1.361,1.3617,1.3625,1.3629,1.3622,1.3652,1.3655,1.3657,1.3665,1.3669,1.3627,1.3627,1.3627,1.3627,0,1.3492,1.351,1.3525,1.3541,1.3551,1.3571,1.3573,1.3584,1.3582,1.3586,1.3607,1.3616,1.3631,1.3637,1.3637,1.3661,1.3657,1.3652,1.364,1.3662,1.3669,1.3673,1.3628,1.3628,1.3628,1.3628,0,0,1.3536,1.355,1.3555,1.3561,1.3573,1.3586,1.3604,1.3618,1.3625,1.3637,1.365,1.3671,1.3664,1.3673,1.3673,1.3683,1.3703,1.3676,1.3676,1.3679,1.3727,1.373,1.3734,1.37,1.3701,1.3702,1.3725,0,1.3569,1.3599,1.3599,1.3627,1.3641,1.3635,1.365,1.3658,1.3661,1.3672,1.3675,1.3689,1.3681,1.3686,1.3695,1.3699,1.3713,1.3697,1.3711,1.3711,1.3707,1.3738,1.3743,1.3765,1.3728,1.3729,1.3729,0,1.3611,1.3622,1.3651,1.3657,1.3663,1.3677,1.3687,1.3699,1.3707,1.3708,1.3716,1.3713,1.3728,1.3716,1.3736,1.3725,1.3731,1.3733,1.3733,1.3734,1.3721,1.3738,1.3772,1.3775,1.3734,1.3734,1.3734,0,1.3637,1.3659,1.3678,1.3683,1.3692,1.3701,1.3705,1.3712,1.3719,1.3728,1.3732,1.3744,1.3749,1.3757,1.3756,1.3748,1.3775,1.3764,1.3775,1.3775,1.3781,1.378,1.3814,1.3786,1.3786,1.3786,1.3786,0,1.3672,1.3689,1.3689,1.3701,1.3719,1.3717,1.3735,1.3738,1.3744,1.3754,1.375,1.376,1.3759,1.3769,1.3769,1.3783,1.3786,1.3786,1.3786,1.3786,1.3786,1.3789,1.3787,1.3787,1.3787,1.3787,1.3787,0,1.3704,1.3705,1.3725,1.373,1.3732,1.3745,1.3749,1.3759,1.376,1.3774,1.3777,1.3779,1.3789,1.3789,1.3802,1.3801,1.3818,1.3817,1.3816,1.3815,1.3825,1.3823,1.3861,1.3865,1.3836,1.3836,1.3837,0,1.3726,1.3738,1.3744,1.3751,1.3755,1.3766,1.3773,1.3771,1.3778,1.3786,1.3794,1.3804,1.3812,1.3829,1.383,1.3839,1.3837,1.3849,1.3838,1.3837,1.3834,1.3833,1.3833,1.3851,1.3852,1.3852,1.3852,0,1.3763,1.3762,1.3771,1.378,1.3788,1.3795,1.3801,1.3807,1.3805,1.3813,1.3823,1.3829,1.384,1.3849,1.3857,1.386,1.3855,1.3855,1.3858,1.3858,1.3856,1.3855,1.382,1.3855,1.3854,1.3854,1.3854,1.3854,1.3789,1.3798,1.3803,1.3813,1.3817,1.3822,1.3831,1.3832,1.3841,1.385,1.3848,1.3859,1.3863,1.3872,1.3876,1.3883,1.3879,1.3883,1.3884,1.3884,1.3884,1.3855,1.3885,1.3885,1.3885,1.3884,1.3884,0,1.3824,1.3826,1.3835,1.3843,1.385,1.3844,1.385,1.3856,1.3865,1.387,1.3877,1.3887,1.3895,1.3896,1.3903,1.3909,1.3906,1.391,1.3909,1.3909,1.3889,1.3885,1.3912,1.3912,1.3912,1.3912,1.3912,1.3912,1.3843,1.3858,1.3856,1.3872,1.3874,1.3884,1.3887,1.3891,1.3894,1.3906,1.3912,1.3912,1.3915,1.3921,1.3928,1.3928,1.393,1.3934,1.3933,1.3914,1.3911,1.3909,1.3905,1.3935,1.3935,1.3952,1.3953,1.3953]}]]